This is the latest recevied weather packets stored in our database for station/object IK1PCD-11. If no packets are shown the sender has not sent any weather packets the latest 10 day(s).
| Time | Temp. | Humidity | Pressure | Rain* | Wind** | Luminosity | Snow |
|---|---|---|---|---|---|---|---|
| 1787825453 | 22.22° C | 100% | 1021.4 hPa | - | - | - | - |
| 1787824553 | 21.67° C | 100% | 1021.5 hPa | - | - | - | - |
| 1787822755 | 21.11° C | 100% | 1021.2 hPa | - | - | - | - |
| 1787821855 | 21.11° C | 100% | 1021.5 hPa | - | - | - | - |
| 1787820955 | 20.56° C | 100% | 1021.7 hPa | - | - | - | - |
| 1787820055 | 20° C | 100% | 1021.7 hPa | - | - | - | - |
| 1787819155 | 18.89° C | 100% | 1021.9 hPa | - | - | - | - |
| 1787818255 | 18.89° C | 100% | 1022 hPa | - | - | - | - |
| 1787817354 | 18.33° C | 100% | 1022 hPa | - | - | - | - |
| 1787816454 | 17.78° C | 100% | 1022.1 hPa | - | - | - | - |
| 1787815554 | 17.22° C | 100% | 1021.9 hPa | - | - | - | - |
| 1787814654 | 16.67° C | 100% | 1021.7 hPa | - | - | - | - |
| 1787813754 | 16.11° C | 100% | 1021.7 hPa | - | - | - | - |
| 1787812854 | 15° C | 100% | 1021.6 hPa | - | - | - | - |
| 1787811954 | 14.44° C | 100% | 1021.5 hPa | - | - | - | - |
| 1787811054 | 14.44° C | 100% | 1021.4 hPa | - | - | - | - |
| 1787808353 | 13.33° C | 100% | 1021.2 hPa | - | - | - | - |
| 1787807453 | 13.33° C | 100% | 1021.2 hPa | - | - | - | - |
| 1787806553 | 12.78° C | 100% | 1021.2 hPa | - | - | - | - |
| 1787805652 | 12.78° C | 100% | 1021.3 hPa | - | - | - | - |
| 1787804752 | 12.78° C | 100% | 1021.4 hPa | - | - | - | - |
| 1787803851 | 12.78° C | 100% | 1021.5 hPa | - | - | - | - |
| 1787802951 | 12.78° C | 100% | 1021.4 hPa | - | - | - | - |
| 1787802059 | 12.78° C | 100% | 1021.4 hPa | - | - | - | - |
| 1787801159 | 12.78° C | 100% | 1021.4 hPa | - | - | - | - |
* Rain since midnight (hover to see other rain measurements)
** Current wind speed in m/s (hover to see current wind gust speed)